GW3154 Weather Reports


Display with metric or nautical units.
time (UTC)temp
F
wind
direction
speed
MPH
gust
MPH
rain 1hr
in
rain 24hr
in
rain mn
in
humidity
%
barometer
mb
20260901025344 73 309 1.0 1.0 0.00 0.00 0.00 59 1009.0
20260901023842 74 289 1.0 2.0 0.00 0.00 0.00 55 1008.9
20260901022340 77 350 1.0 2.0 0.00 0.00 0.00 52 1008.8
20260901020837 79 178 0.0 0.0 0.00 0.00 0.00 50 1008.7
20260901015335 81 179 1.0 2.0 0.00 0.00 0.00 46 1008.6
20260901013831 83 118 0.0 0.0 0.00 0.00 0.00 43 1008.3
20260901012328 83 161 0.0 0.0 0.00 0.00 0.00 39 1008.2
20260901010824 84 139 0.0 0.0 0.00 0.00 0.00 40 1008.4
20260901005320 86 167 1.0 1.0 0.00 0.00 0.00 38 1008.4
20260901003820 84 348 1.0 1.0 0.00 0.00 0.00 36 1008.8
20260901002320 84 181 0.0 0.0 0.00 0.00 0.00 37 1008.6
20260901000816 85 154 0.0 0.0 0.00 0.00 0.00 39 1008.7
20260831235312 86 188 0.0 1.0 0.00 0.00 0.00 35 1008.6
20260831233808 87 327 1.0 2.0 0.00 0.00 0.00 35 1008.8
20260831232307 86 185 0.0 0.0 0.00 0.00 0.00 39 1008.8
20260831230805 84 199 0.0 0.0 0.00 0.00 0.00 40 1009.0
20260831225300 84 139 2.0 2.0 0.00 0.00 0.00 41 1009.0
20260831223757 85 71 1.0 1.0 0.00 0.00 0.00 41 1009.2
20260831222257 84 179 0.0 1.0 0.00 0.00 0.00 40 1009.3
20260831220754 84 37 1.0 1.0 0.00 0.00 0.00 41 1009.4
20260831215252 82 149 0.0 0.0 0.00 0.00 0.00 44 1009.6
20260831213752 81 182 2.0 3.0 0.00 0.00 0.00 45 1009.7
20260831212252 81 181 1.0 2.0 0.00 0.00 0.00 45 1009.9
20260831210752 82 188 0.0 1.0 0.00 0.00 0.00 47 1010.0
20260831205250 80 100 0.0 0.0 0.00 0.00 0.00 44 1010.3
20260831203748 80 162 1.0 1.0 0.00 0.00 0.00 45 1010.4
20260831202248 76 96 0.0 0.0 0.00 0.00 0.00 53 1010.5
20260831200743 75 42 2.0 2.0 0.00 0.00 0.00 50 1010.9
20260831195241 75 91 0.0 0.0 0.00 0.00 0.00 51 1010.9
20260831193736 75 191 0.0 1.0 0.00 0.00 0.00 51 1011.2
20260831192234 75 182 1.0 1.0 0.00 0.00 0.00 52 1011.5
20260831190732 74 171 1.0 1.0 0.00 0.00 0.00 55 1011.6
20260831185228 73 237 0.0 0.0 0.00 0.00 0.00 55 1011.8
20260831183723 71 271 1.0 2.0 0.00 0.00 0.00 59 1011.8
20260831182218 71 206 1.0 1.0 0.00 0.00 0.00 61 1012.0
20260831180714 70 261 1.0 2.0 0.00 0.00 0.00 62 1012.0
20260831175211 69 109 3.0 5.0 0.00 0.00 0.00 64 1012.2
20260831173710 68 96 0.0 0.0 0.00 0.00 0.00 64 1012.3
20260831172207 68 123 0.0 0.0 0.00 0.00 0.00 65 1012.4
20260831170708 67 101 0.0 0.0 0.00 0.00 0.00 69 1012.4
20260831165202 66 53 2.0 2.0 0.00 0.00 0.00 70 1012.6
20260831163700 65 81 0.0 0.0 0.00 0.00 0.00 72 1012.8
20260831162159 66 103 0.0 0.0 0.00 0.00 0.00 71 1013.0
20260831160656 65 87 0.0 0.0 0.00 0.00 0.00 73 1012.9
20260831155152 63 63 0.0 0.0 0.00 0.00 0.00 78 1013.1
20260831153648 61 126 0.0 1.0 0.00 0.00 0.00 83 1013.0
20260831152148 59 338 1.0 1.0 0.00 0.00 0.00 86 1013.0
20260831150643 57 269 0.0 0.0 0.00 0.00 0.00 91 1013.0
20260831145140 56 47 0.0 0.0 0.00 0.00 0.00 92 1012.9
20260831143636 53 48 0.0 0.0 0.00 0.00 0.00 96 1013.1
20260831142135 51 47 0.0 0.0 0.00 0.00 0.00 97 1013.0
20260831140634 51 48 0.0 0.0 0.00 0.00 0.00 97 1013.1
20260831135129 51 47 0.0 0.0 0.00 0.00 0.00 97 1013.1
20260831133624 51 48 0.0 0.0 0.00 0.00 0.00 96 1013.1
20260831132120 51 62 0.0 0.0 0.00 0.00 0.00 96 1013.2
20260831130619 51 74 0.0 0.0 0.00 0.00 0.00 95 1013.3
20260831125114 52 50 0.0 0.0 0.00 0.00 0.00 96 1013.3
20260831123611 52 49 0.0 0.0 0.00 0.00 0.00 95 1013.4
20260831122107 51 49 0.0 0.0 0.00 0.00 0.00 95 1013.3
20260831120602 52 49 0.0 1.0 0.00 0.00 0.00 94 1013.4
20260831115100 52 54 0.0 0.0 0.00 0.00 0.00 94 1013.4
20260831113559 52 52 0.0 0.0 0.00 0.00 0.00 93 1013.6
20260831112056 53 286 0.0 1.0 0.00 0.00 0.00 93 1013.8
20260831110554 53 47 0.0 0.0 0.00 0.00 0.00 92 1013.7
20260831105049 53 65 0.0 0.0 0.00 0.00 0.00 91 1013.8
20260831103548 55 315 0.0 1.0 0.00 0.00 0.00 92 1013.7
20260831102045 53 49 0.0 0.0 0.00 0.00 0.00 92 1013.9
20260831100543 53 51 0.0 0.0 0.00 0.00 0.00 92 1014.0
20260831095038 53 51 0.0 0.0 0.00 0.00 0.00 90 1014.2
20260831093536 54 51 0.0 0.0 0.00 0.00 0.00 89 1014.3
20260831092036 54 51 0.0 0.0 0.00 0.00 0.00 88 1014.4
20260831090532 55 51 0.0 0.0 0.00 0.00 0.00 89 1014.5
20260831085030 55 52 0.0 0.0 0.00 0.00 0.00 87 1014.8
20260831083529 56 52 0.0 0.0 0.00 0.00 0.00 85 1014.9
20260831082024 56 52 0.0 0.0 0.00 0.00 0.00 84 1014.8
20260831080521 58 54 0.0 0.0 0.00 0.00 0.00 81 1014.9
20260831075020 59 302 1.0 2.0 0.00 0.00 0.00 81 1015.0
20260831073520 60 253 1.0 1.0 0.00 0.00 0.00 79 1015.2
20260831072017 60 83 0.0 0.0 0.00 0.00 0.00 78 1015.2
20260831070515 60 128 0.0 0.0 0.00 0.00 0.00 78 1015.4
20260831065015 60 49 0.0 0.0 0.00 0.00 0.00 76 1015.4
20260831063513 62 234 0.0 1.0 0.00 0.00 0.00 75 1015.6
20260831062013 62 282 0.0 0.0 0.00 0.00 0.00 73 1015.8
20260831060513 62 286 1.0 1.0 0.00 0.00 0.00 72 1016.0
20260831055011 63 291 1.0 2.0 0.00 0.00 0.00 71 1016.0
20260831053508 63 293 1.0 1.0 0.00 0.00 0.00 70 1016.2
20260831052008 64 276 0.0 1.0 0.00 0.00 0.00 68 1016.2
20260831050506 64 264 1.0 1.0 0.00 0.00 0.00 67 1016.3
20260831045005 65 55 0.0 0.0 0.00 0.00 0.00 65 1016.5
20260831043501 65 252 0.0 1.0 0.00 0.00 0.00 64 1016.5
20260831041956 66 63 1.0 1.0 0.00 0.00 0.00 62 1016.4
20260831040452 66 269 1.0 1.0 0.00 0.00 0.00 61 1016.5
20260831034950 67 310 2.0 2.0 0.00 0.00 0.00 59 1016.3
20260831033447 68 55 0.0 0.0 0.00 0.00 0.00 58 1016.1
20260831031944 68 35 0.0 0.0 0.00 0.00 0.00 58 1016.3